Home > Weather > Gander > Past weeks

Flag for Canada Past Weather in Gander, Newfoundland and Labrador, Canada — Yesterday and Last 2 Weeks

Now
61 °F

Passing clouds.


Feels Like: 61 °F
Forecast: 49 / 72 °F
Wind: 8 mph from West

Location: Gander Int. Airport

Current Time: Jun 25, 2016 at 10:05:06 AM

Latest Report: Jun 25, 2016 at 9:30 AM


Visibility: 20 mi

Pressure: 30.19 "Hg

Humidity: 59%

Dew Point: 46 °F

Location of GanderLocation

Past Weather in Gander — Graph

°F

Gander Temperature Yesterday

Maximum temperature yesterday: 72 °F (at 3:30 PM)
Minimum temperature yesterday: 50 °F (at 5:30 AM)
Average temperature yesterday: 58 °F

High & Low Weather Summary for the Past Weeks

 TemperatureHumidityPressure
High82 °F (Jun 19, 2:30 PM)100% (Jun 10, 8:30 AM)30.17 "Hg (Jun 10, 8:30 AM)
Low37 °F (Jun 10, 8:30 AM)23% (Jun 19, 4:30 PM)29.43 "Hg (Jun 10, 8:30 AM)
Average53 °F82%29.78 "Hg
* Reported Jun 10 8:30 AM — Jun 25 8:30 AM, Gander, Weather by CustomWeather, © 2016

Note: Actual official high and low records may vary slightly from our data, if they occured in-between our weather recording intervals... More about our weather records

Advertising

Gander Weather History for the Previous 24 Hours

Scroll right to see more
 ConditionsComfort  
Time TempWeatherWind HumidityBarometerVisibility
8:30 AM
Sat, Jun 25
55 °FPassing clouds.10 mph72%30.17 "Hg20 mi
7:30 AM52 °FPassing clouds.9 mph77%30.16 "Hg20 mi
6:30 AM50 °FPassing clouds.8 mph82%30.14 "Hg20 mi
5:30 AM48 °FPassing clouds.10 mph82%30.11 "Hg20 mi
4:30 AM48 °FPassing clouds.9 mph82%30.09 "Hg20 mi
3:30 AM48 °FPassing clouds.8 mph87%30.08 "Hg20 mi
2:30 AM50 °FPassing clouds.10 mph82%30.06 "Hg20 mi
1:30 AM52 °FPassing clouds.10 mph82%30.03 "Hg20 mi
12:30 AM54 °FPassing clouds.12 mph82%30.01 "Hg20 mi
11:30 PM
Fri, Jun 24
54 °FPassing clouds.10 mph88%29.99 "Hg20 mi
10:30 PM55 °FPartly cloudy.9 mph88%29.97 "Hg20 mi
9:30 PM55 °FPartly sunny.9 mph94%29.96 "Hg20 mi
8:30 PM57 °FBroken clouds.8 mph88%29.93 "Hg20 mi
7:30 PM59 °FSprinkles. Broken clouds.7 mph88%29.93 "Hg15 mi
7:20 PM61 °FSprinkles. Broken clouds.7 mph77%29.92 "Hg15 mi
6:33 PM59 °FSprinkles. Broken clouds.8 mph82%29.92 "Hg15 mi
5:30 PM59 °FPartly sunny.7 mph88%29.91 "Hg20 mi
4:30 PM57 °FSprinkles. Fog.21 mph88%29.92 "Hg6 mi
3:30 PM72 °FPartly sunny.16 mph50%29.85 "Hg20 mi
2:30 PM70 °FPartly sunny.16 mph53%29.85 "Hg20 mi
1:30 PM70 °FPartly sunny.14 mph53%29.86 "Hg20 mi
12:30 PM66 °FBroken clouds.15 mph60%29.88 "Hg20 mi
11:30 AM64 °FBroken clouds.15 mph64%29.88 "Hg20 mi
10:30 AM63 °FPartly sunny.10 mph68%29.88 "Hg20 mi
Weather by CustomWeather, © 2016

See weather overviewHow to use our weather pages